星链-31998 (STARLINK-31998 )

导读 | 豆包AI

STARLINK-31998是美国太空探索技术公司SpaceX星链星座的一员,于2024年6月8日发射入轨。作为星链互联网星座的组网卫星,它承担着为全球范围提供低成本、高速卫星互联网接入服务的任务,该卫星服役期间,助力SpaceX完成低轨卫星星座布局的拓展,进一步完善全球卫星通信网络覆盖能力。

基本信息
目录编号:
60033
目录名称:
STARLINK-31998
国际标识:
2024-111T
轨道中心:
EARTH
卫星名称:
星链-31998
卫星全名:
星链-31998 (STARLINK-31998 )
卫星状态:
已陨落 最后检测时间 2025-07-18
发射日期:
2024-06-08 UTC
国别 :
美国 (US)
星等 :
--
轨道信息
数据来源 国际轨道数据
星历时间: 2025-07-17T23:04:24+0800
轨道信息已过期241天
半长轴: 6605.662km
偏心率: 0.0006313
轨道倾角: 53.156°
近地点辐角 251.028°
升交点赤经 62.874°
平近点角 155.713°
近地点: 223.356km
远地点: 231.698km
周期: 89.050分钟
每日圈数: 16.170682
详细信息
固有亮度:
5
最大亮度:
1.5
卫星平台:
Starlink v2.0 mini
覆盖范围:
全球
运营商:
太空探索技术公司
运营商所在国:
美国
制造商(研发单位):
太空探索技术公司
制造商所在国:
美国
使用方式:
暂无
卫星简介
星链(Starlink)计划是由太空探索技术公司(SpaceX)提出的一个巨型低轨卫星互联网星座项目,计划在2019年至2024年间在太空搭建由约1.2万颗卫星组成的“星链”网络,其中1584颗将部署在地球上空550千米处的近地轨道,并从2020年开始工作。该卫星仍在工作。